Weather History for KTSP - November, 2012

Change the Weather History Date:

Tuesday, November 13, 2012

  Actual Average Record
Temperature  
Mean Temperature 43 °F -  
Max Temperature 62 °F 59 °F 64 °F (2013)
Min Temperature 24 °F 36 °F 24 °F (2012)
Degree Days  
Heating Degree Days 22    
Moisture  
Dew Point 4 °F    
Average Humidity 22    
Maximum Humidity 54    
Minimum Humidity 8    
Precipitation  
Precipitation 0.00 in - - ()
Sea Level Pressure  
Sea Level Pressure 30.22 in    
Wind  
Wind Speed 7 mph (ESE)    
Max Wind Speed 17 mph    
Max Gust Speed 22 mph    
Visibility 10 miles    
Events      
Averages and records for this station are not official NWS values.
T = Trace of Precipitation, MM = Missing Value Source: NWS Daily Summary

Daily Weather History Graph

Daily Weather History Graph

Search for Another Location

Airport or City:

Trip Planner

Search our weather history database for the weather conditions in past years. The results will help you decide how hot, cold, wet, or windy it might be!

Date:

Astronomy

Nov. 13, 2012 Rise Set
Actual Time 6:27 AM PST 4:48 PM PST
Civil Twilight 6:00 AM PST 5:15 PM PST
Nautical Twilight 5:29 AM PST 5:46 PM PST
Astronomical Twilight 4:59 AM PST 6:16 PM PST
Moon 6:10 AM PST (11/13) 4:47 PM PST (11/13)
Length of Visible Light 11h 15m
Length of Day
10h 21m
Waning Crescent, 0% of the Moon is Illuminated
Nov 13
Waning Crescent
Nov 13
New
Nov 20
First Quarter
Nov 28
Full
Dec 6
Last Quarter

Hourly Weather History & Observations

Time (PST) Temp. Windchill Dew Point Humidity Pressure Visibility Wind Dir Wind Speed Gust Speed Precip Events Conditions
12:15 AM 26.6 °F - 10.4 °F 51% 30.30 in 10.0 mi Calm Calm - N/A   Clear
12:35 AM 24.8 °F - 10.4 °F 54% 30.29 in 10.0 mi Calm Calm - N/A   Clear
12:55 AM 26.6 °F - 10.4 °F 51% 30.28 in 10.0 mi Calm Calm - N/A   Clear
1:15 AM 26.6 °F - 8.6 °F 47% 30.27 in 10.0 mi Calm Calm - N/A   Clear
1:35 AM 26.6 °F - 10.4 °F 51% 30.27 in 10.0 mi Calm Calm - N/A   Clear
1:55 AM 24.8 °F - 8.6 °F 50% 30.26 in 10.0 mi Calm Calm - N/A   Clear
2:15 AM 24.8 °F - 8.6 °F 50% 30.27 in 10.0 mi Calm Calm - N/A   Clear
2:35 AM 26.6 °F 20.0 °F 6.8 °F 43% 30.27 in 10.0 mi ESE 5.8 mph - N/A   Clear
2:55 AM 26.6 °F 22.6 °F 6.8 °F 43% 30.26 in 10.0 mi SE 3.5 mph - N/A   Clear
3:15 AM 26.6 °F 21.2 °F 6.8 °F 43% 30.25 in 10.0 mi East 4.6 mph - N/A   Clear
4:15 AM 28.4 °F 19.7 °F 3.2 °F 34% 30.25 in 10.0 mi ESE 9.2 mph - N/A   Clear
4:35 AM 32.0 °F 25.6 °F -0.4 °F 25% 30.25 in 10.0 mi ESE 6.9 mph - N/A   Clear
4:55 AM 32.0 °F 24.8 °F 1.4 °F 27% 30.25 in 10.0 mi ESE 8.1 mph - N/A   Clear
5:15 AM 35.6 °F 29.9 °F -0.4 °F 22% 30.25 in 10.0 mi East 6.9 mph - N/A   Clear
5:35 AM 28.4 °F 21.2 °F 1.4 °F 31% 30.25 in 10.0 mi ESE 6.9 mph - N/A   Clear
5:55 AM 28.4 °F 19.7 °F 3.2 °F 34% 30.25 in 10.0 mi SE 9.2 mph - N/A   Clear
6:15 AM 30.2 °F 26.7 °F 1.4 °F 29% 30.26 in 10.0 mi East 3.5 mph - N/A   Clear
6:35 AM 30.2 °F 24.3 °F 1.4 °F 29% 30.26 in 10.0 mi SE 5.8 mph - N/A   Clear
6:55 AM 30.2 °F 21.9 °F 5.0 °F 34% 30.26 in 10.0 mi SE 9.2 mph - N/A   Clear
7:15 AM 32.0 °F 24.2 °F 5.0 °F 32% 30.26 in 10.0 mi SE 9.2 mph - N/A   Clear
7:35 AM 37.4 °F 32.1 °F 3.2 °F 24% 30.27 in 10.0 mi ESE 6.9 mph - N/A   Clear
7:55 AM 44.6 °F 39.7 °F 1.4 °F 17% 30.27 in 10.0 mi East 9.2 mph - N/A   Clear
8:15 AM 46.4 °F 42.4 °F 1.4 °F 16% 30.26 in 9.0 mi ESE 8.1 mph - N/A   Clear
8:35 AM 50.0 °F - -0.4 °F 13% 30.27 in 8.0 mi East 10.4 mph - N/A   Clear
8:55 AM 53.6 °F - -0.4 °F 11% 30.27 in 10.0 mi East 9.2 mph - N/A   Clear
9:15 AM 55.4 °F - -0.4 °F 10% 30.27 in 10.0 mi ESE 11.5 mph - N/A   Clear
9:35 AM 57.2 °F - -0.4 °F 10% 30.27 in 10.0 mi ESE 10.4 mph - N/A   Clear
9:55 AM 59.0 °F - -0.4 °F 9% 30.26 in 10.0 mi ESE 13.8 mph 17.3 mph N/A   Clear
10:15 AM 59.0 °F - -0.4 °F 9% 30.26 in 10.0 mi SE 15.0 mph - N/A   Clear
10:55 AM 62.6 °F - -0.4 °F 8% 30.24 in 10.0 mi ESE 13.8 mph 18.4 mph N/A   Clear
11:15 AM 62.6 °F - 5.0 °F 10% 30.23 in 9.0 mi ESE 12.7 mph - N/A   Clear
11:35 AM 62.6 °F - 5.0 °F 10% 30.22 in 10.0 mi SE 15.0 mph - N/A   Clear
11:55 AM 62.6 °F - 5.0 °F 10% 30.21 in 9.0 mi SE 15.0 mph 20.7 mph N/A   Clear
12:15 PM 62.6 °F - 5.0 °F 10% 30.21 in 9.0 mi ESE 15.0 mph 20.7 mph N/A   Clear
12:35 PM 62.6 °F - 3.2 °F 9% 30.20 in 10.0 mi ESE 13.8 mph 20.7 mph N/A   Clear
12:55 PM 62.6 °F - 5.0 °F 10% 30.19 in 10.0 mi ESE 13.8 mph - N/A   Clear
1:15 PM 62.6 °F - 5.0 °F 10% 30.18 in 10.0 mi ESE 16.1 mph 20.7 mph N/A   Clear
1:35 PM 62.6 °F - 5.0 °F 10% 30.18 in 9.0 mi SE 16.1 mph 20.7 mph N/A   Clear
1:55 PM 62.6 °F - 6.8 °F 11% 30.17 in 10.0 mi ESE 16.1 mph 21.9 mph N/A   Clear
2:15 PM 62.6 °F - 5.0 °F 10% 30.17 in 10.0 mi ESE 17.3 mph 20.7 mph N/A   Clear
2:35 PM 62.6 °F - 5.0 °F 10% 30.17 in 10.0 mi ESE 15.0 mph 18.4 mph N/A   Clear
2:55 PM 60.8 °F - 5.0 °F 11% 30.17 in 10.0 mi East 11.5 mph 19.6 mph N/A   Clear
3:15 PM 60.8 °F - 5.0 °F 11% 30.17 in 10.0 mi East 13.8 mph - N/A   Clear
3:35 PM 59.0 °F - 5.0 °F 12% 30.17 in 10.0 mi East 15.0 mph - N/A   Clear
3:55 PM 59.0 °F - 5.0 °F 12% 30.17 in 10.0 mi East 13.8 mph 19.6 mph N/A   Clear
4:15 PM 57.2 °F - 5.0 °F 12% 30.17 in 10.0 mi East 13.8 mph 19.6 mph N/A   Clear
4:35 PM 55.4 °F - 3.2 °F 12% 30.17 in 10.0 mi East 13.8 mph - N/A   Clear
4:55 PM 53.6 °F - 3.2 °F 13% 30.17 in 10.0 mi East 12.7 mph - N/A   Clear
5:15 PM 53.6 °F - 1.4 °F 12% 30.17 in 10.0 mi East 12.7 mph - N/A   Clear
5:35 PM 51.8 °F - 3.2 °F 14% 30.18 in 10.0 mi East 12.7 mph - N/A   Clear
5:55 PM 51.8 °F - 3.2 °F 14% 30.18 in 10.0 mi East 11.5 mph - N/A   Clear
6:15 PM 51.8 °F - 1.4 °F 13% 30.18 in 10.0 mi East 9.2 mph - N/A   Clear
6:35 PM 51.8 °F - 1.4 °F 13% 30.18 in 10.0 mi East 9.2 mph - N/A   Clear
6:55 PM 51.8 °F - 1.4 °F 13% 30.18 in 10.0 mi East 10.4 mph - N/A   Clear
7:15 PM 51.8 °F - 1.4 °F 13% 30.19 in 10.0 mi ESE 9.2 mph - N/A   Clear
7:35 PM 44.6 °F 40.2 °F 5.0 °F 20% 30.18 in 10.0 mi ESE 8.1 mph - N/A   Clear
7:55 PM 39.2 °F 32.0 °F 5.0 °F 24% 30.18 in 10.0 mi ESE 11.5 mph - N/A   Clear
8:15 PM 44.6 °F 39.2 °F 6.8 °F 21% 30.19 in 10.0 mi ESE 10.4 mph - N/A   Clear
8:35 PM 39.2 °F 34.2 °F 6.8 °F 26% 30.19 in 10.0 mi ESE 6.9 mph - N/A   Clear
8:55 PM 41.0 °F 35.2 °F 6.8 °F 24% 30.19 in 10.0 mi ESE 9.2 mph - N/A   Clear
9:15 PM 35.6 °F 28.6 °F 6.8 °F 30% 30.19 in 10.0 mi ESE 9.2 mph - N/A   Clear
9:35 PM 46.4 °F 41.1 °F 5.0 °F 18% 30.19 in 10.0 mi ESE 11.5 mph - N/A   Clear
9:55 PM 37.4 °F 30.8 °F 6.8 °F 28% 30.19 in 10.0 mi ESE 9.2 mph - N/A   Clear
10:15 PM 48.2 °F - 3.2 °F 16% 30.19 in 10.0 mi East 9.2 mph - N/A   Clear
10:35 PM 46.4 °F 41.9 °F 5.0 °F 18% 30.20 in 10.0 mi ESE 9.2 mph - N/A   Clear
10:55 PM 44.6 °F 39.2 °F 5.0 °F 20% 30.20 in 10.0 mi ESE 10.4 mph - N/A   Clear
11:15 PM 37.4 °F 29.3 °F 6.8 °F 28% 30.20 in 10.0 mi ESE 12.7 mph - N/A   Clear
11:35 PM 41.0 °F 34.7 °F 6.8 °F 24% 30.19 in 10.0 mi ESE 10.4 mph - N/A   Clear
11:55 PM 35.6 °F 28.6 °F 6.8 °F 30% 30.20 in 10.0 mi SE 9.2 mph - N/A   Clear